Printer-friendly version

IAU Minor Planet Center

Minor Planet Center

MPEC 2006-K15 : 2006 KC

The following Minor Planet Electronic Circular may be linked-to from your own Web pages, but must not otherwise be redistributed electronically.


Read MPEC 2006-K14 Read MPEC 2006-K16


M.P.E.C. 2006-K15                                Issued 2006 May 19, 14:20 UT

     The Minor Planet Electronic Circulars contain information on unusual
         minor planets and routine data on comets.  They are published
   on behalf of Commission 20 of the International Astronomical Union by the
          Minor Planet Center, Smithsonian Astrophysical Observatory,
                          Cambridge, MA 02138, U.S.A.

                  Supported in part by the Brinson Foundation
                  Supported in part by the TABASGO Foundation
             Prepared using the Tamkin Foundation Computer Network

                              MPC@CFA.HARVARD.EDU
          URL http://cfa-www.harvard.edu/iau/mpc.html  ISSN 1523-6714

                                    2006 KC

Observations:
     K06K00C* C2006 05 19.33020 15 59 45.31 -16 29 24.0          17.4 V EK015703
     K06K00C  C2006 05 19.33765 15 59 42.68 -16 28 17.5          17.4 V EK015703
     K06K00C  C2006 05 19.35257 15 59 37.50 -16 26 04.5          17.3 V EK015703
     K06K00C  C2006 05 19.37969 15 59 28.03 -16 22 03.6          17.4 V EK015703
     K06K00C  C2006 05 19.38023 15 59 27.85 -16 21 58.8          17.2 V EK015703
     K06K00C  C2006 05 19.38075 15 59 27.74 -16 21 54.5          17.0 V EK015703
     K06K00C  C2006 05 19.40693 15 59 18.74 -16 18 01.2          17.2 V EK015703
     K06K00C  C2006 05 19.40747 15 59 18.56 -16 17 55.9          17.4 V EK015703
     K06K00C  C2006 05 19.40801 15 59 18.34 -16 17 50.9          17.2 V EK015703
     K06K00C  C2006 05 19.40854 15 59 18.20 -16 17 46.9          17.1 V EK015703
     K06K00C 2C2006 05 19.43054 15 59 10.49 -16 14 31.4          17.4 R EK015H06
     K06K00C 2C2006 05 19.43518 15 59 08.72 -16 13 48.2          17.4 R EK015H06
     K06K00C 2C2006 05 19.43986 15 59 07.35 -16 13 09.9          17.7 R EK015H06
     K06K00C  C2006 05 19.50765 15 58 54.22 -16 01 45.2          17.5 V EK015E12
     K06K00C  C2006 05 19.50807 15 58 54.08 -16 01 41.5          17.5 V EK015E12
     K06K00C  C2006 05 19.50847 15 58 53.94 -16 01 38.1          17.3 V EK015E12
     K06K00C  C2006 05 19.50889 15 58 53.79 -16 01 34.4          17.6 V EK015E12
     K06K00C  C2006 05 19.50929 15 58 53.68 -16 01 32.0          17.4 V EK015E12
     K06K00C  C2006 05 19.53970 15 58 41.42 -15 56 53.3          17.6 R EK015474
     K06K00C  C2006 05 19.54074 15 58 41.01 -15 56 43.7          17.3 R EK015474
     K06K00C  C2006 05 19.54201 15 58 40.58 -15 56 32.7          17.4 R EK015474

Observer details:
474 Mount John Observatory, Lake Tekapo.  Observer A. C. Gilmore.  0.6-m f/6.4
    reflector + CCD.
703 Catalina Sky Survey.  Observer R. A. Kowalski.  Measurers E. C. Beshore,
    E. J. Christensen, G. J. Garradd, A. R. Gibbs, A. D. Grauer, R. E. Hill,
    R. A. Kowalski, S. M. Larson, R. H. McNaught.  0.68-m Schmidt + CCD.
E12 Siding Spring Survey.  Observer R. H. McNaught.  Measurers E. C. Beshore,
    E. J. Christensen, G. J. Garradd, A. R. Gibbs, A. D. Grauer, R. E. Hill,
    R. A. Kowalski, S. M. Larson, R. H. McNaught.  0.5-m Uppsala Schmidt + CCD.
H06 New Mexico Skies Observatory.  Observer R. Hutsebaut.  0.30-m reflector
    + CCD.

Orbital elements:
2006 KC                                                  Earth MOID = 0.0310 AU
Epoch 2006 Mar. 6.0 TT = JDT 2453800.5                  MPC
M 355.99044              (2000.0)            P               Q
n   0.70321167     Peri.  255.31572     -0.64927868     -0.73094247
a   1.2524066      Node   237.14733     +0.75778533     -0.59819326
e   0.4912346      Incl.   14.48642     +0.06479658     -0.32846299
P   1.40           H   22.1           G   0.15           U   9
Residuals in seconds of arc
060519 703  0.3-  0.1-    060519 703  0.7-  0.5+    060519 E12  0.6-  0.1-
060519 703  0.5-  0.1-    060519 703  1.2-  0.7+    060519 E12  0.7-  0.1-
060519 703  0.1-  0.1-    060519 703  0.7-  0.0     060519 E12  0.8-  0.0
060519 703  1.1-  0.6-    060519 H06  0.2+  0.2-    060519 E12  0.5-  1.0-
060519 703  1.1-  0.6-    060519 H06 (3.1-  1.9+)   060519 474  0.3+  0.6-
060519 703  0.1-  0.9-    060519 H06  0.6-  1.2-    060519 474  0.7-  0.0
060519 703  0.8-  0.0     060519 E12  0.6-  0.2-    060519 474  0.8-  0.2+

Ephemeris:
2006 KC                  a,e,i = 1.25, 0.49, 14                  q = 0.6372
Date    TT    R. A. (2000) Decl.     Delta      r     Elong.  Phase     V
2006 05 15    16 40.67   -33 24.4    0.0552   1.062   157.9    21.0    17.0
2006 05 17    16 15.85   -23 44.6    0.0689   1.079   169.3    10.0    17.1
2006 05 19    16 01.56   -17 18.8    0.0844   1.096   174.8     4.8    17.3
2006 05 21    15 52.35   -12 54.2    0.101    1.112   172.8     6.6    17.9
2006 05 23    15 45.97   -09 45.9    0.118    1.129   168.9    10.0    18.4
2006 05 25    15 41.34   -07 27.5    0.136    1.145   165.3    13.0    18.8
2006 05 27    15 37.88   -05 43.4    0.155    1.161   162.2    15.5    19.2
2006 05 29    15 35.25   -04 23.5    0.173    1.177   159.4    17.7    19.6
2006 05 31    15 33.25   -03 21.6    0.192    1.193   156.8    19.5    19.9
2006 06 02    15 31.72   -02 33.3    0.212    1.209   154.5    21.1    20.2
2006 06 04    15 30.59   -01 55.6    0.232    1.224   152.4    22.6    20.4
2006 06 06    15 29.78   -01 26.2    0.252    1.240   150.3    23.9    20.7
2006 06 08    15 29.24   -01 03.5    0.272    1.255   148.4    25.1    20.9
2006 06 10    15 28.94   -00 46.4    0.293    1.270   146.6    26.1    21.1
2006 06 12    15 28.83   -00 33.9    0.314    1.285   144.8    27.1    21.3
2006 06 14    15 28.91   -00 25.2    0.335    1.299   143.1    28.0    21.5
2006 06 16    15 29.16   -00 19.7    0.357    1.314   141.4    28.8    21.7
2006 06 18    15 29.55   -00 17.1    0.379    1.328   139.8    29.6    21.9
2006 06 20    15 30.08   -00 16.8    0.401    1.342   138.3    30.3    22.1
2006 06 22    15 30.74   -00 18.7    0.423    1.356   136.7    30.9    22.2
2006 06 24    15 31.53   -00 22.4    0.446    1.369   135.2    31.5    22.4

Timothy B. Spahr             (C) Copyright 2006 MPC           M.P.E.C. 2006-K15

Read MPEC 2006-K14 Read MPEC 2006-K16


Our Web policy. Index to the CBAT/MPC/ICQ pages.


Valid HTML 4.01!